Theta_e
317 315 316 317 318 319 320 320 318 316 315 313 311 310 309 309 309 309 312 311 310 311 313 311 313 314 314 317 317 318 322 324 324 321 320 318 319 318 317 318 319 321 323 330 336
317 315 315 317 317 319 320 321 316 313 313 311 310 309 309 308 311 312 310 311 310 311 313 312 314 314 315 318 318 319 322 324 322 321 319 318 318 317 316 317 318 320 325 335 336
317 316 315 316 317 318 319 321 315 312 311 310 309 309 308 308 313 311 310 310 309 310 313 314 314 314 315 317 318 318 322 321 319 317 319 318 319 317 316 316 316 318 325 334 336
316 316 316 316 318 317 318 319 316 311 310 310 309 308 308 312 312 313 311 310 308 310 312 314 314 314 316 317 317 318 317 315 317 315 318 319 318 318 317 317 316 317 323 332 333
316 316 315 316 317 317 318 319 317 310 309 309 308 308 310 312 313 311 311 310 309 312 312 314 314 315 315 316 315 316 316 315 315 315 316 317 318 317 317 314 314 316 323 329 332
316 316 315 316 316 317 317 318 315 310 309 309 308 308 314 310 310 312 311 310 312 312 312 313 314 314 314 315 315 315 314 314 314 314 314 317 315 315 315 315 313 314 318 323 327
316 316 316 316 316 317 317 318 314 310 308 308 308 309 311 312 312 314 311 312 312 312 313 313 313 313 314 315 313 314 314 313 313 313 313 313 314 312 313 312 314 313 313 315 320
316 316 315 316 316 317 317 317 313 309 308 308 308 313 311 310 313 313 312 312 311 312 312 312 312 314 315 313 313 313 314 314 314 313 313 314 316 315 312 310 311 310 309 310 313
316 316 315 316 316 316 316 315 312 309 308 308 310 313 310 308 312 313 312 312 311 311 311 311 313 314 314 313 313 313 312 313 312 313 313 313 315 314 311 310 310 309 310 309 310
316 315 315 316 315 316 316 313 311 310 310 311 311 312 309 310 311 312 312 312 312 312 312 313 313 313 312 312 312 313 312 313 313 311 312 313 312 313 312 311 310 310 311 310 309
316 315 315 315 314 316 314 313 314 312 310 309 310 309 309 311 311 311 311 312 313 313 312 313 312 311 311 311 312 311 311 312 312 311 313 312 312 312 311 311 310 310 310 310 310
316 315 315 314 315 315 312 310 310 310 311 310 309 310 311 311 311 311 312 313 313 312 313 313 311 312 312 311 311 312 313 312 311 311 312 312 312 311 311 311 310 310 310 310 311
316 315 315 314 315 314 312 309 309 309 309 309 309 311 311 312 311 312 311 312 313 312 312 312 311 312 312 312 311 311 311 311 312 311 311 310 310 310 310 311 310 311 310 310 310
315 315 314 313 315 313 312 309 309 308 310 310 309 310 312 312 312 311 311 312 312 312 311 312 311 312 312 312 311 311 310 310 311 310 309 310 308 310 311 310 310 310 309 309 310
315 315 314 313 315 313 311 310 308 307 311 309 309 309 312 311 311 311 309 310 312 312 312 312 311 312 312 311 310 311 309 310 311 311 310 310 308 306 311 311 310 308 308 308 311
315 314 314 314 314 312 311 309 309 311 315 310 309 311 312 311 311 310 310 309 310 312 311 310 309 311 312 309 310 310 310 310 310 309 310 309 308 309 309 309 310 311 310 311 311
315 314 314 314 314 312 310 311 312 313 310 311 309 311 310 311 312 310 310 310 310 310 310 310 310 308 310 309 310 311 310 311 310 311 310 308 309 308 310 309 309 310 310 308 310
315 314 314 314 312 312 311 310 310 309 310 310 309 310 309 310 311 311 310 309 308 308 309 310 311 309 308 310 310 310 309 313 312 315 311 307 307 308 309 309 306 308 308 308 309
315 314 314 312 311 311 310 311 309 309 312 312 310 310 309 309 310 311 310 309 309 308 308 309 310 309 308 310 309 310 309 310 309 303 310 309 308 309 309 308 309 305 310 309 309
315 314 312 311 311 311 311 311 316 313 312 310 311 309 309 309 310 310 310 310 310 309 308 310 312 310 309 309 310 309 308 308 309 309 311 307 309 308 311 308 307 308 307 309 309
311 311 307 311 311 311 311 311 314 310 312 311 313 311 310 310 309 311 309 309 309 309 309 309 312 311 309 309 309 308 309 309 308 311 312 310 307 309 310 310 307 306 308 309 308
304 308 304 309 309 308 310 312 312 312 313 314 313 312 311 310 310 310 310 309 308 310 310 310 312 311 310 309 308 307 308 308 309 309 307 309 309 308 307 309 311 308 308 307 307
300 304 304 309 308 309 310 313 312 313 315 315 314 312 311 311 312 311 310 309 309 309 310 309 311 309 311 311 310 310 310 309 308 307 309 308 308 308 308 309 311 309 308 307 306
299 305 301 309 308 310 312 313 314 313 314 314 314 313 312 312 313 311 313 313 310 311 310 310 313 309 309 309 310 310 309 309 309 311 309 309 309 309 309 310 311 310 307 306 305
296 302 299 308 306 311 311 313 314 315 314 315 317 314 313 314 313 314 314 313 310 308 310 310 308 311 308 309 309 311 310 310 310 309 310 309 308 309 307 308 308 307 306 306 306
300 301 302 307 307 310 311 312 313 313 314 314 316 315 315 315 314 314 313 313 314 312 310 310 310 312 308 311 311 311 310 310 309 309 309 308 308 309 308 307 307 308 307 307 306
297 298 304 305 307 309 309 311 312 312 312 312 313 315 316 314 312 312 311 311 312 313 311 310 307 306 305 310 310 308 310 310 309 309 309 310 310 309 308 306 308 308 307 307 306
Wind_Speed
38 33 32 31 31 30 27 27 28 27 25 23 20 17 16 14 12 10 7 9 17 10 10 10 7 7 1 3 2 3 1 4 2 5 6 8 4 1 2 5 2 3 5 13 24
38 33 33 33 32 29 27 27 30 29 25 22 20 18 16 13 8 14 11 13 12 11 12 13 6 12 2 3 3 2 2 5 7 2 8 10 8 8 3 5 4 6 3 22 22
38 34 34 32 31 28 27 26 30 29 26 23 22 19 16 13 3 8 22 15 16 14 10 12 12 6 4 2 4 4 2 1 6 6 10 9 4 8 5 6 8 12 10 14 19
38 35 33 33 29 29 27 27 28 29 27 25 22 19 16 12 7 3 17 23 15 13 7 12 6 7 3 4 5 2 0 6 4 5 2 9 6 4 5 3 5 7 17 14 9
38 35 33 33 31 29 27 26 27 29 27 26 23 21 13 5 6 3 10 20 17 17 13 8 8 6 6 6 3 3 5 4 7 2 5 5 5 1 7 8 7 10 15 11 10
41 36 34 33 31 30 27 24 27 28 26 25 23 22 4 11 4 5 9 19 17 16 15 12 6 8 4 4 6 3 5 6 5 5 3 1 3 2 7 8 10 8 8 11 11
43 38 34 33 31 29 26 23 25 26 24 23 22 20 6 7 6 8 12 15 14 16 8 13 6 4 2 4 2 1 5 3 3 5 2 3 3 7 3 5 7 9 9 8 11
46 41 36 34 31 28 26 23 23 24 22 21 20 8 3 8 6 9 10 8 12 9 5 8 3 2 2 5 3 4 1 4 5 6 2 2 5 11 11 9 8 8 9 9 9
46 43 39 35 32 28 25 23 21 22 21 19 12 6 4 8 7 12 14 10 12 9 6 9 5 4 2 5 4 4 4 7 2 7 3 5 5 3 6 6 7 8 8 9 9
46 45 42 36 33 30 27 25 21 19 16 10 3 4 5 5 10 13 13 16 7 9 5 4 4 4 4 5 5 6 4 2 6 3 1 3 10 2 5 6 8 8 7 7 9
46 45 42 38 35 35 35 25 7 4 11 4 8 1 11 14 15 10 11 16 6 5 6 7 5 7 9 9 3 1 8 6 5 2 1 6 9 10 8 7 9 8 8 8 9
48 47 44 42 40 38 36 9 15 12 8 5 3 4 7 2 5 8 14 7 6 8 7 4 7 9 9 8 5 4 4 2 4 5 3 6 8 10 9 7 9 9 9 10 7
49 48 47 43 41 38 27 11 20 29 5 1 1 3 4 3 5 13 8 4 11 11 11 7 7 10 8 5 7 5 6 4 5 4 2 2 6 9 10 13 10 8 9 8 10
50 50 47 44 32 33 22 15 28 9 4 6 5 4 4 3 3 13 13 4 7 15 11 6 3 10 7 6 5 6 5 7 8 5 2 3 4 4 5 7 7 8 8 8 7
52 52 50 49 21 24 23 19 21 2 6 15 8 12 7 5 11 3 1 2 7 7 8 3 7 12 8 8 10 2 7 7 5 3 3 3 1 6 4 4 7 11 10 8 4
51 51 51 39 26 33 22 14 8 3 7 6 7 11 9 5 3 5 3 1 3 3 5 3 3 4 4 5 7 8 8 8 4 3 2 7 6 5 6 8 4 1 5 7 7
51 51 49 30 16 36 29 10 4 7 8 8 8 10 15 9 5 7 11 7 6 7 6 5 2 3 3 8 4 5 6 2 1 0 5 4 4 10 4 4 5 6 7 8 7
52 52 41 19 35 32 20 8 5 11 10 5 11 13 12 16 5 8 13 12 11 7 8 7 4 8 5 5 8 9 8 6 7 5 3 5 7 7 12 2 2 3 7 8 8
53 43 28 24 42 31 12 12 9 17 12 8 14 14 8 12 8 8 13 13 15 14 6 9 3 6 7 0 9 5 5 1 7 3 4 5 7 8 6 6 6 7 4 6 7
38 27 18 37 41 19 10 13 3 2 10 16 8 10 15 20 8 13 14 13 10 17 10 1 5 2 2 2 2 3 4 3 1 5 4 6 5 7 3 9 8 8 8 7 7
13 6 11 41 29 9 14 8 3 2 8 10 7 9 10 19 13 12 11 4 20 16 10 2 5 2 4 7 8 2 4 5 5 4 5 1 6 4 5 7 11 9 9 9 8
3 4 8 48 11 7 11 7 4 6 3 4 0 3 13 17 13 12 9 12 9 12 17 5 5 4 8 1 4 9 7 8 5 4 2 3 9 5 7 4 3 10 10 9 9
3 3 1 35 7 14 12 5 6 10 7 7 4 2 2 12 7 7 9 2 7 9 13 8 4 3 2 2 3 3 2 4 5 3 6 5 13 4 6 5 4 7 7 7 7
2 4 2 7 1 19 19 7 8 3 6 3 5 4 6 9 3 12 6 2 4 5 7 8 4 8 13 3 9 6 7 7 6 4 21 10 24 2 4 6 5 6 8 8 8
2 1 1 9 4 19 12 6 17 7 4 7 2 8 10 7 4 3 6 4 4 2 4 6 6 4 5 4 3 4 7 13 18 21 7 22 17 25 7 9 9 8 8 9 9
1 1 1 8 11 15 10 11 16 7 9 10 9 8 7 6 6 11 8 5 3 1 5 1 1 1 4 3 3 2 10 13 16 18 13 19 18 30 2 5 8 10 12 12 13
3 2 2 3 8 10 7 12 14 12 3 6 9 9 10 8 14 10 12 8 5 5 4 4 5 3 2 7 5 7 21 10 9 12 10 16 27 22 14 7 9 11 13 16 16
Wind_Direction
202 205 207 209 203 201 190 191 189 192 193 198 194 195 192 191 196 197 225 207 220 239 177 163 171 130 273 249 277 284 330 228 232 143 120 143 126 297 9 114 69 85 57 115 138
203 202 207 205 205 197 191 187 188 189 192 190 192 192 187 182 187 229 225 214 215 188 170 171 169 135 176 231 213 231 203 235 182 182 143 162 163 149 139 147 143 95 50 122 142
202 201 203 203 201 197 191 188 188 187 185 185 186 188 179 167 193 238 228 210 204 195 181 197 164 167 201 158 218 223 245 295 49 48 130 156 185 144 207 177 183 171 161 145 154
203 198 201 201 198 200 194 189 187 184 181 182 180 181 171 161 203 178 193 205 192 180 188 198 181 164 174 217 210 251 329 348 67 10 37 149 141 160 229 108 42 99 155 155 162
202 196 200 198 197 195 195 189 186 183 180 180 177 169 155 207 254 194 190 186 175 171 195 189 178 184 167 183 72 255 125 42 72 82 47 85 142 224 202 130 81 85 145 159 170
198 194 196 196 193 192 192 186 184 182 178 175 171 166 185 220 187 167 170 165 171 171 198 211 200 206 210 183 180 202 118 122 140 102 57 173 102 30 229 161 139 133 172 168 182
193 187 193 193 189 187 187 181 180 178 174 171 170 167 226 211 152 170 163 165 177 178 186 200 283 140 162 117 69 149 103 87 181 164 100 296 151 228 160 140 181 181 198 194 194
188 180 191 189 184 180 180 178 175 170 167 167 168 162 232 171 163 162 149 157 170 189 197 174 191 72 323 114 131 157 239 163 158 129 148 143 254 223 186 162 201 212 199 205 211
186 177 186 186 176 175 171 170 166 162 160 158 153 218 197 153 159 172 168 162 156 141 126 150 179 147 149 156 119 219 191 198 158 201 114 188 250 182 113 155 221 244 237 196 193
185 177 180 180 172 169 164 155 147 142 139 138 247 198 164 186 144 162 177 161 156 135 123 166 157 167 201 186 180 158 225 202 153 213 29 222 268 281 189 198 229 244 236 223 192
182 177 177 176 172 167 154 134 136 150 191 175 169 49 131 111 133 175 168 167 150 192 159 197 176 189 189 198 238 113 161 170 125 40 165 238 265 256 243 209 221 235 244 240 212
179 177 176 173 173 169 156 171 172 142 164 43 306 84 97 173 128 162 170 169 163 188 145 116 217 191 193 208 129 139 143 169 68 84 105 306 266 260 256 247 223 212 231 230 236
179 177 174 169 172 169 177 184 167 143 129 123 352 140 165 180 151 172 175 204 180 192 187 165 191 208 175 140 160 189 173 151 116 162 193 308 274 239 246 231 249 230 224 241 209
177 176 169 169 162 171 195 179 164 173 112 174 200 202 125 201 123 166 198 221 203 198 185 231 180 153 147 167 162 193 140 112 135 145 193 189 271 312 251 218 221 248 242 236 249
177 175 170 173 153 175 185 182 176 281 151 158 156 147 156 172 128 246 126 73 203 204 140 174 163 150 173 191 176 206 128 130 123 118 78 176 24 261 8 234 236 238 223 224 144
176 174 171 169 157 171 173 161 134 106 213 156 135 168 148 169 87 105 167 317 298 82 46 63 318 143 135 42 145 137 96 86 109 140 264 190 170 244 201 210 219 102 127 131 116
175 173 171 168 161 172 165 146 107 191 145 167 169 166 162 157 131 164 179 176 157 133 180 116 152 58 125 80 85 159 149 115 120 121 221 325 173 234 266 248 210 196 175 153 138
175 173 170 172 157 171 160 165 157 182 178 178 150 149 174 145 175 173 166 191 224 216 158 160 187 158 196 179 175 201 179 159 177 183 204 342 233 255 220 109 70 86 171 143 144
166 163 161 164 166 167 160 188 195 173 144 121 136 155 176 172 150 160 193 198 195 209 208 172 211 89 131 171 135 215 239 106 101 2 72 209 274 300 195 235 216 207 174 167 164
161 163 156 165 166 167 175 194 99 13 118 144 152 184 182 174 161 184 182 197 195 203 226 108 106 40 38 340 344 129 157 65 309 135 218 247 235 228 162 238 229 216 201 185 154
148 130 157 166 152 166 193 187 124 292 148 160 153 174 185 175 177 187 194 210 191 184 200 234 113 109 131 221 167 171 200 209 155 176 178 246 250 193 191 220 208 199 173 167 161
91 114 178 148 151 188 194 175 140 172 21 82 58 126 178 169 181 183 213 185 179 162 192 175 113 155 200 206 231 223 207 179 151 252 264 136 260 151 129 114 146 173 176 166 158
64 85 93 163 152 176 161 142 189 161 175 172 141 146 176 164 163 191 170 336 128 151 160 169 199 91 154 223 105 218 230 243 276 46 206 155 258 202 73 63 42 142 135 138 138
112 126 37 189 73 160 162 171 154 169 166 183 111 111 119 148 22 183 127 21 31 145 107 149 180 195 204 136 151 189 186 214 200 182 233 229 258 219 161 168 167 157 155 146 157
42 98 216 171 167 162 155 124 144 154 186 145 189 187 150 156 125 150 106 114 35 76 143 153 192 205 254 336 83 167 180 201 215 229 191 244 249 263 233 206 198 183 156 166 186
10 165 346 132 138 148 165 175 162 145 151 178 161 166 123 138 176 167 132 149 144 113 169 136 186 142 40 91 313 296 235 213 223 238 243 260 268 262 205 279 167 179 182 190 200
264 284 47 89 145 150 159 149 172 139 341 174 168 121 104 101 93 76 70 77 106 131 139 104 130 86 227 145 89 308 243 192 226 236 221 238 247 271 272 242 197 197 194 204 208